Year,Month,Day,Hour,Minute,Value (Times are PST for temperature in C)
2017,06,19,11,23,15.20
2017,06,19,11,24,15.20
2017,06,19,11,25,15.20
2017,06,19,11,26,15.20
2017,06,19,11,27,15.30
2017,06,19,11,28,15.30
2017,06,19,11,29,15.30
2017,06,19,11,30,15.40
2017,06,19,11,31,15.40
2017,06,19,11,32,15.50
2017,06,19,11,33,15.60
2017,06,19,11,34,15.60
2017,06,19,11,35,15.60
2017,06,19,11,36,15.60
2017,06,19,11,37,15.70
2017,06,19,11,38,15.70
2017,06,19,11,39,15.70
2017,06,19,11,40,15.70
2017,06,19,11,41,15.70
2017,06,19,11,42,15.70
2017,06,19,11,43,15.70
2017,06,19,11,44,15.70
2017,06,19,11,45,15.70
2017,06,19,11,46,15.70
2017,06,19,11,47,15.70
2017,06,19,11,48,15.70
2017,06,19,11,49,15.70
2017,06,19,12,24,17.60
2017,06,19,12,25,17.60
2017,06,19,12,26,17.50
2017,06,19,12,27,17.40
2017,06,19,12,28,17.30
2017,06,19,12,29,17.20
2017,06,19,12,30,17.20
2017,06,19,12,31,17.20
2017,06,19,12,32,17.20
2017,06,19,12,33,17.20
2017,06,19,12,34,17.30
2017,06,19,12,35,17.30
2017,06,19,12,36,17.30
2017,06,19,12,37,17.30
2017,06,19,12,38,17.30
2017,06,19,12,39,17.30
2017,06,19,12,40,17.30
2017,06,19,12,41,17.30
2017,06,19,12,42,17.30
2017,06,19,12,43,17.30
2017,06,19,12,44,17.30
2017,06,19,12,45,17.30
2017,06,19,12,46,17.30
2017,06,19,12,47,17.30
